Elizabethtown, NC

4:33 AM EDT on May 24, 2018 (GMT -0400)
Elizabethtown

Weather History for KEYF - March, 2014

Change the Weather History Date:

Saturday, March 22, 2014

  Actual Average (KILM) Record (KILM)
Temperature  
Mean Temperature 62 °F -  
Max Temperature 77 °F 67 °F 87 °F (1907)
Min Temperature 46 °F 44 °F 27 °F (1956)
Degree Days  
Heating Degree Days 4    
Growing Degree Days 12 (Base 50)    
Moisture  
Dew Point 48 °F    
Average Humidity 65    
Maximum Humidity 95    
Minimum Humidity 32    
Precipitation  
Precipitation 0.00 in - - ()
Sea Level Pressure  
Sea Level Pressure 30.03 in    
Wind  
Wind Speed 5 mph (SSW)    
Max Wind Speed 15 mph    
Max Gust Speed 22 mph    
Visibility 10 miles    
Events      
Averages and records for this station are not official NWS values.
T = Trace of Precipitation, MM = Missing Value Source: NWS Daily Summary

Daily Weather History Graph

Daily Weather History Graph

Search for Another Location

Airport or City:

Astronomy

Mar. 22, 2014 Rise Set
Actual Time 7:14 AM EDT 7:26 PM EDT
Civil Twilight 6:49 AM EDT 7:51 PM EDT
Nautical Twilight 6:19 AM EDT 8:21 PM EDT
Astronomical Twilight 5:50 AM EDT 8:51 PM EDT
Moon 12:32 AM EDT (3/22) 11:07 AM EDT (3/22)
Length of Visible Light 13h 02m
Length of Day
12h 12m
Waning Gibbous, 65% of the Moon is Illuminated
Mar 22
Waning Gibbous
Mar 23
Last Quarter
Mar 30
New
Apr 7
First Quarter
Apr 15
Full

Hourly Weather History & Observations

Time (EDT) Temp. Dew Point Humidity Pressure Visibility Wind Dir Wind Speed Gust Speed Precip Events Conditions
12:15 AM 50.7 °F 37.6 °F 61% 30.12 in 10.0 mi South 3.5 mph - N/A   Clear
12:35 AM 50.4 °F 38.3 °F 63% 30.11 in 10.0 mi South 4.6 mph - N/A   Clear
12:55 AM 50.2 °F 39.4 °F 66% 30.11 in 10.0 mi South 3.5 mph - N/A   Clear
1:15 AM 50.0 °F 40.1 °F 69% 30.10 in 10.0 mi South 4.6 mph - N/A   Clear
1:35 AM 49.5 °F 41.0 °F 73% 30.09 in 10.0 mi South 3.5 mph - N/A   Clear
1:55 AM 49.1 °F 41.2 °F 74% 30.09 in 10.0 mi SSE 3.5 mph - N/A   Clear
2:15 AM 49.5 °F 41.9 °F 75% 30.08 in 10.0 mi South 3.5 mph - N/A   Clear
2:35 AM 49.5 °F 42.1 °F 76% 30.08 in 10.0 mi South 3.5 mph - N/A   Clear
2:55 AM 47.7 °F 41.9 °F 80% 30.07 in 10.0 mi Calm Calm - N/A   Clear
3:15 AM 47.8 °F 41.9 °F 80% 30.07 in 10.0 mi Calm Calm - N/A   Clear
3:35 AM 48.4 °F 42.8 °F 81% 30.06 in 10.0 mi SSE 4.6 mph - N/A   Clear
3:55 AM 48.6 °F 43.3 °F 82% 30.06 in 10.0 mi SSE 4.6 mph - N/A   Clear
4:15 AM 48.6 °F 43.0 °F 81% 30.05 in 10.0 mi SSE 3.5 mph - N/A   Clear
4:35 AM 47.8 °F 43.5 °F 85% 30.05 in 10.0 mi Calm Calm - N/A   Clear
4:55 AM 46.9 °F 42.6 °F 85% 30.05 in 10.0 mi Calm Calm - N/A   Clear
5:15 AM 48.6 °F 44.8 °F 87% 30.05 in 10.0 mi Calm Calm - N/A   Clear
5:35 AM 48.0 °F 45.3 °F 90% 30.05 in 10.0 mi SSE 3.5 mph - N/A   Clear
5:55 AM 46.9 °F 44.2 °F 90% 30.06 in 10.0 mi South 3.5 mph - N/A   Clear
6:15 AM 46.0 °F 42.8 °F 88% 30.06 in 10.0 mi Calm Calm - N/A   Clear
6:35 AM 47.5 °F 44.1 °F 88% 30.06 in 10.0 mi Calm Calm - N/A   Clear
6:55 AM 47.3 °F 44.8 °F 91% 30.07 in 10.0 mi Calm Calm - N/A   Clear
7:15 AM 47.3 °F 44.8 °F 91% 30.07 in 10.0 mi South 3.5 mph - N/A   Clear
7:35 AM 46.9 °F 44.8 °F 92% 30.07 in 10.0 mi South 3.5 mph - N/A   Clear
7:55 AM 47.8 °F 46.0 °F 93% 30.07 in 10.0 mi South 3.5 mph - N/A   Clear
8:15 AM 50.9 °F 47.5 °F 88% 30.07 in 10.0 mi South 4.6 mph - N/A   Clear
8:35 AM 52.2 °F 48.2 °F 86% 30.07 in 10.0 mi SSW 4.6 mph - N/A   Clear
8:55 AM 54.3 °F 48.6 °F 81% 30.07 in 10.0 mi SSW 5.8 mph - N/A   Clear
9:15 AM 55.6 °F 48.7 °F 78% 30.08 in 10.0 mi SSW 5.8 mph - N/A   Clear
9:35 AM 60.1 °F 47.8 °F 64% 30.08 in 10.0 mi SW 6.9 mph - N/A   Clear
9:55 AM 62.8 °F 45.5 °F 53% 30.08 in 10.0 mi SW 8.1 mph - N/A   Clear
10:15 AM 64.6 °F 44.2 °F 48% 30.08 in 10.0 mi SW 8.1 mph - N/A   Clear
10:35 AM 66.6 °F 45.1 °F 46% 30.08 in 10.0 mi SSW 8.1 mph - N/A   Clear
10:55 AM 68.0 °F 46.2 °F 46% 30.07 in 10.0 mi SW 9.2 mph - N/A   Clear
11:15 AM 69.4 °F 47.5 °F 45% 30.07 in 10.0 mi SW 13.8 mph 18.4 mph N/A   Clear
11:35 AM 71.1 °F 49.5 °F 46% 30.06 in 10.0 mi SW 10.4 mph 17.3 mph N/A   Clear
11:55 AM 73.2 °F 51.3 °F 46% 30.06 in 10.0 mi SW 15.0 mph 21.9 mph N/A   Clear
12:15 PM 73.4 °F 50.9 °F 45% 30.05 in 10.0 mi SW 12.7 mph 19.6 mph N/A   Clear
12:35 PM 74.1 °F 50.7 °F 44% 30.04 in 10.0 mi WSW 10.4 mph 21.9 mph N/A   Scattered Clouds
12:55 PM 74.3 °F 48.6 °F 40% 30.04 in 10.0 mi WSW 15.0 mph 20.7 mph N/A   Mostly Cloudy
1:15 PM 75.2 °F 46.9 °F 37% 30.02 in 10.0 mi WSW 11.5 mph 18.4 mph N/A   Mostly Cloudy
1:55 PM 75.9 °F 45.7 °F 34% 30.00 in 10.0 mi West 15.0 mph 18.4 mph N/A   Scattered Clouds
2:15 PM 77.0 °F 45.9 °F 33% 29.99 in 10.0 mi West 15.0 mph 19.6 mph N/A   Scattered Clouds
2:35 PM 76.5 °F 45.5 °F 33% 29.97 in 10.0 mi West 8.1 mph 17.3 mph N/A   Scattered Clouds
2:55 PM 77.0 °F 45.0 °F 32% 29.97 in 10.0 mi SW 10.4 mph 20.7 mph N/A   Scattered Clouds
3:15 PM 76.3 °F 45.3 °F 33% 29.96 in 10.0 mi WSW 9.2 mph 16.1 mph N/A   Scattered Clouds
3:35 PM 77.0 °F 45.5 °F 33% 29.95 in 10.0 mi West 9.2 mph - N/A   Scattered Clouds
3:55 PM 77.0 °F 45.5 °F 33% 29.96 in 10.0 mi WSW 10.4 mph 18.4 mph N/A   Scattered Clouds
4:15 PM 77.7 °F 45.9 °F 32% 29.96 in 10.0 mi West 11.5 mph 18.4 mph N/A   Mostly Cloudy
4:35 PM 77.0 °F 46.8 °F 34% 29.95 in 10.0 mi WSW 8.1 mph - N/A   Mostly Cloudy
4:55 PM 77.0 °F 46.4 °F 34% 29.95 in 10.0 mi SW 10.4 mph - N/A   Scattered Clouds
5:15 PM 77.0 °F 46.8 °F 34% 29.95 in 10.0 mi WSW 9.2 mph - N/A   Scattered Clouds
5:35 PM 76.6 °F 46.9 °F 35% 29.95 in 10.0 mi WSW 6.9 mph - N/A   Mostly Cloudy
5:55 PM 75.4 °F 46.6 °F 36% 29.95 in 10.0 mi WSW 4.6 mph - N/A   Scattered Clouds
6:15 PM 74.8 °F 47.1 °F 37% 29.96 in 10.0 mi SW 3.5 mph - N/A   Mostly Cloudy
6:35 PM 73.2 °F 55.6 °F 54% 29.96 in 10.0 mi South 8.1 mph - N/A   Overcast
6:55 PM 72.0 °F 56.3 °F 58% 29.97 in 10.0 mi South 4.6 mph - N/A   Overcast
7:15 PM 71.1 °F 57.2 °F 61% 29.98 in 10.0 mi South 6.9 mph - N/A   Overcast
7:35 PM 70.7 °F 58.1 °F 64% 29.98 in 10.0 mi South 6.9 mph - N/A   Overcast
7:55 PM 69.6 °F 58.3 °F 67% 29.97 in 10.0 mi South 6.9 mph - N/A   Scattered Clouds
8:15 PM 68.2 °F 58.1 °F 70% 29.97 in 10.0 mi South 5.8 mph - N/A   Clear
8:35 PM 67.8 °F 59.0 °F 73% 29.98 in 10.0 mi South 5.8 mph - N/A   Clear
8:55 PM 66.9 °F 59.4 °F 77% 29.97 in 10.0 mi South 6.9 mph - N/A   Clear
9:15 PM 66.2 °F 59.9 °F 80% 29.98 in 10.0 mi South 8.1 mph - N/A   Clear
9:35 PM 65.3 °F 60.1 °F 83% 30.00 in 10.0 mi South 6.9 mph - N/A   Clear
9:55 PM 64.4 °F 59.9 °F 85% 30.01 in 10.0 mi South 5.8 mph - N/A   Clear
10:15 PM 63.5 °F 59.5 °F 87% 30.01 in 10.0 mi South 4.6 mph - N/A   Clear
10:35 PM 62.8 °F 59.2 °F 88% 30.01 in 10.0 mi South 3.5 mph - N/A   Clear
10:55 PM 62.1 °F 59.2 °F 90% 30.01 in 10.0 mi South 3.5 mph - N/A   Clear
11:15 PM 61.2 °F 59.0 °F 93% 30.01 in 10.0 mi Calm Calm - N/A   Clear
11:35 PM 60.8 °F 58.8 °F 93% 30.01 in 10.0 mi Calm Calm - N/A   Scattered Clouds
11:55 PM 59.2 °F 57.7 °F 95% 30.01 in 10.0 mi South 3.5 mph - N/A   Scattered Clouds